Tracking 30306 objects as of 23-Apr-2025
HD Live streaming from Space Station
objects crossing your sky now

SL-14 DEB

Track SL-14 DEB now!
10-day predictions


NORAD ID: 19139
Int'l Code: 1978-100M
Perigee: 1,703.7 km
Apogee: 1,942.8 km
Inclination: 82.1 °
Period: 123.0 minutes
Semi major axis: 8194 km
RCS: 0.0604 m2 (small)
Launch date: October 26, 1978
Source: Commonwealth of Independent States (former USSR) (CIS)
Launch site: PLESETSK MISSILE AND SPACE COMPLEX (PKMTR)

Note: This is SATELLITE DEBRIS
Your satellite tracking list
Your tracking list is empty




NASA's NSSDC Master Catalog

Two Line Element Set (TLE):
1 19139U 78100M   25112.70653610  .00000075  00000-0  11556-2 0  9990
2 19139  82.1383 273.9968 0145846  50.6906  84.5011 11.70413876577936
Source of the keplerian elements: AFSPC